Location: Pian di Sc�
(43.6333°N, 11.5500°E)
Time: 14:27:46
(UTC+00:00)

Cosmos 1626 - Pass Details

Date: 07 August 2020
Orbit: 491 x 495 km, 82.5° (Epoch: 24 September)

Event Time Altitude Azimuth Distance (km) Brightness Sun altitude
Rises 02:33:34 0° 335° (NNW) 2,590 6.0 -15.5°
Reaches altitude 10° 02:36:10 10° 316° (NW) 1,701 4.8 -15.1°
Enters shadow 02:38:36 18° 275° (W) 1,273 3.8 -14.8°
